owner,sensor,date,latitude,longitude,relative_humidity,qcFlag 
COMPS,ioos:station:USF.COMPS:CAM:1,2014-05-28T15:00:00Z,27.7650,-82.6490,68.03,1111122 
COMPS,ioos:station:USF.COMPS:CAM:1,2014-05-28T15:06:00Z,27.7650,-82.6490,68.08,1111122 
COMPS,ioos:station:USF.COMPS:CAM:1,2014-05-28T15:12:00Z,27.7650,-82.6490,64.9,1111122 
COMPS,ioos:station:USF.COMPS:CAM:1,2014-05-28T15:18:00Z,27.7650,-82.6490,64.02,1111122 
COMPS,ioos:station:USF.COMPS:CAM:1,2014-05-28T15:24:00Z,27.7650,-82.6490,63.62,1111122 
COMPS,ioos:station:USF.COMPS:CAM:1,2014-05-28T15:30:00Z,27.7650,-82.6490,61.14,1111122 
COMPS,ioos:station:USF.COMPS:CAM:1,2014-05-28T15:36:00Z,27.7650,-82.6490,60.42,1111122 
COMPS,ioos:station:USF.COMPS:CAM:1,2014-05-28T15:42:00Z,27.7650,-82.6490,59.96,1111122 
COMPS,ioos:station:USF.COMPS:CAM:1,2014-05-28T15:48:00Z,27.7650,-82.6490,62.02,1111122 
COMPS,ioos:station:USF.COMPS:CAM:1,2014-05-28T15:54:00Z,27.7650,-82.6490,61.14,1111122 
COMPS,ioos:station:USF.COMPS:CAM:1,2014-05-28T16:00:00Z,27.7650,-82.6490,60.68,1111122 
COMPS,ioos:station:USF.COMPS:CAM:1,2014-05-28T16:06:00Z,27.7650,-82.6490,60.7,1111122 
COMPS,ioos:station:USF.COMPS:CAM:1,2014-05-28T16:12:00Z,27.7650,-82.6490,59.41,1111122 
COMPS,ioos:station:USF.COMPS:CAM:1,2014-05-28T16:18:00Z,27.7650,-82.6490,56.89,1111122 
COMPS,ioos:station:USF.COMPS:CAM:1,2014-05-28T16:24:00Z,27.7650,-82.6490,56.29,1111122 
COMPS,ioos:station:USF.COMPS:CAM:1,2014-05-28T16:30:00Z,27.7650,-82.6490,56.6,1111122 
COMPS,ioos:station:USF.COMPS:CAM:1,2014-05-28T16:36:00Z,27.7650,-82.6490,56.73,1111122 
COMPS,ioos:station:USF.COMPS:CAM:1,2014-05-28T16:42:00Z,27.7650,-82.6490,57.72,1111122 
COMPS,ioos:station:USF.COMPS:CAM:1,2014-05-28T16:48:00Z,27.7650,-82.6490,56.96,1111122 
COMPS,ioos:station:USF.COMPS:CAM:1,2014-05-28T16:54:00Z,27.7650,-82.6490,56.19,1111122 
COMPS,ioos:station:USF.COMPS:CAM:1,2014-05-28T17:00:00Z,27.7650,-82.6490,53.36,1111122 
COMPS,ioos:station:USF.COMPS:CAM:1,2014-05-28T17:06:00Z,27.7650,-82.6490,53.22,1111122 
COMPS,ioos:station:USF.COMPS:CAM:1,2014-05-28T17:12:00Z,27.7650,-82.6490,51.59,1111122 
COMPS,ioos:station:USF.COMPS:CAM:1,2014-05-28T17:18:00Z,27.7650,-82.6490,50.68,1111122 
COMPS,ioos:station:USF.COMPS:CAM:1,2014-05-28T17:24:00Z,27.7650,-82.6490,47.67,1111122 
COMPS,ioos:station:USF.COMPS:CAM:1,2014-05-28T17:30:00Z,27.7650,-82.6490,48.22,1111122 
COMPS,ioos:station:USF.COMPS:CAM:1,2014-05-28T17:36:00Z,27.7650,-82.6490,45.99,1111122 
COMPS,ioos:station:USF.COMPS:CAM:1,2014-05-28T17:42:00Z,27.7650,-82.6490,44.14,1111122 
COMPS,ioos:station:USF.COMPS:CAM:1,2014-05-28T17:48:00Z,27.7650,-82.6490,43.35,1111122 
COMPS,ioos:station:USF.COMPS:CAM:1,2014-05-28T17:54:00Z,27.7650,-82.6490,43.39,1111122 
COMPS,ioos:station:USF.COMPS:CAM:1,2014-05-28T18:00:00Z,27.7650,-82.6490,44.2,1111122 
COMPS,ioos:station:USF.COMPS:CAM:1,2014-05-28T18:06:00Z,27.7650,-82.6490,45.48,1111122 
COMPS,ioos:station:USF.COMPS:CAM:1,2014-05-28T18:12:00Z,27.7650,-82.6490,45.04,1111122 
COMPS,ioos:station:USF.COMPS:CAM:1,2014-05-28T18:18:00Z,27.7650,-82.6490,45.13,1111122 
COMPS,ioos:station:USF.COMPS:CAM:1,2014-05-28T18:24:00Z,27.7650,-82.6490,45.88,1111122 
COMPS,ioos:station:USF.COMPS:CAM:1,2014-05-28T18:30:00Z,27.7650,-82.6490,46.3,1111122 
COMPS,ioos:station:USF.COMPS:CAM:1,2014-05-28T18:36:00Z,27.7650,-82.6490,47.27,1111122 
COMPS,ioos:station:USF.COMPS:CAM:1,2014-05-28T18:42:00Z,27.7650,-82.6490,49.56,1111122 
COMPS,ioos:station:USF.COMPS:CAM:1,2014-05-28T18:48:00Z,27.7650,-82.6490,50.03,1111122 
COMPS,ioos:station:USF.COMPS:CAM:1,2014-05-28T18:54:00Z,27.7650,-82.6490,49.59,1111122 
COMPS,ioos:station:USF.COMPS:CAM:1,2014-05-28T19:00:00Z,27.7650,-82.6490,49.27,1111122 
COMPS,ioos:station:USF.COMPS:CAM:1,2014-05-28T19:06:00Z,27.7650,-82.6490,48.97,1111122 
COMPS,ioos:station:USF.COMPS:CAM:1,2014-05-28T19:12:00Z,27.7650,-82.6490,49.76,1111122 
COMPS,ioos:station:USF.COMPS:CAM:1,2014-05-28T19:18:00Z,27.7650,-82.6490,49.32,1111122 
COMPS,ioos:station:USF.COMPS:CAM:1,2014-05-28T19:24:00Z,27.7650,-82.6490,47.85,1111122 
COMPS,ioos:station:USF.COMPS:CAM:1,2014-05-28T19:30:00Z,27.7650,-82.6490,48.13,1111122 
COMPS,ioos:station:USF.COMPS:CAM:1,2014-05-28T19:36:00Z,27.7650,-82.6490,48.92,1111122 
COMPS,ioos:station:USF.COMPS:CAM:1,2014-05-28T19:42:00Z,27.7650,-82.6490,50.65,1111122 
COMPS,ioos:station:USF.COMPS:CAM:1,2014-05-28T19:48:00Z,27.7650,-82.6490,51.12,1111122 
COMPS,ioos:station:USF.COMPS:CAM:1,2014-05-28T19:54:00Z,27.7650,-82.6490,53.13,1111122 
COMPS,ioos:station:USF.COMPS:CAM:1,2014-05-28T20:00:00Z,27.7650,-82.6490,54.0,1111122 
COMPS,ioos:station:USF.COMPS:CAM:1,2014-05-28T20:06:00Z,27.7650,-82.6490,54.4,1111122 
COMPS,ioos:station:USF.COMPS:CAM:1,2014-05-28T20:12:00Z,27.7650,-82.6490,52.72,1111122 
COMPS,ioos:station:USF.COMPS:CAM:1,2014-05-28T20:18:00Z,27.7650,-82.6490,52.53,1111122 
COMPS,ioos:station:USF.COMPS:CAM:1,2014-05-28T20:24:00Z,27.7650,-82.6490,54.57,1111122 
COMPS,ioos:station:USF.COMPS:CAM:1,2014-05-28T20:30:00Z,27.7650,-82.6490,55.93,1111122 
COMPS,ioos:station:USF.COMPS:CAM:1,2014-05-28T20:36:00Z,27.7650,-82.6490,55.97,1111122 
COMPS,ioos:station:USF.COMPS:CAM:1,2014-05-28T20:42:00Z,27.7650,-82.6490,56.2,1111122 
COMPS,ioos:station:USF.COMPS:CAM:1,2014-05-28T20:48:00Z,27.7650,-82.6490,55.12,1111122 
COMPS,ioos:station:USF.COMPS:CAM:1,2014-05-28T20:54:00Z,27.7650,-82.6490,54.93,1111122 
COMPS,ioos:station:USF.COMPS:CAM:1,2014-05-28T21:00:00Z,27.7650,-82.6490,54.41,1111122 
COMPS,ioos:station:USF.COMPS:CAM:1,2014-05-28T21:06:00Z,27.7650,-82.6490,55.76,1111122 
COMPS,ioos:station:USF.COMPS:CAM:1,2014-05-28T21:12:00Z,27.7650,-82.6490,55.91,1111122 
COMPS,ioos:station:USF.COMPS:CAM:1,2014-05-28T21:18:00Z,27.7650,-82.6490,56.96,1111122 
COMPS,ioos:station:USF.COMPS:CAM:1,2014-05-28T21:24:00Z,27.7650,-82.6490,54.93,1111122 
COMPS,ioos:station:USF.COMPS:CAM:1,2014-05-28T21:30:00Z,27.7650,-82.6490,54.54,1111122 
COMPS,ioos:station:USF.COMPS:CAM:1,2014-05-28T21:36:00Z,27.7650,-82.6490,54.64,1111122 
COMPS,ioos:station:USF.COMPS:CAM:1,2014-05-28T21:42:00Z,27.7650,-82.6490,55.48,1111122 
COMPS,ioos:station:USF.COMPS:CAM:1,2014-05-28T21:48:00Z,27.7650,-82.6490,55.68,1111122 
COMPS,ioos:station:USF.COMPS:CAM:1,2014-05-28T21:54:00Z,27.7650,-82.6490,55.32,1111122 
COMPS,ioos:station:USF.COMPS:CAM:1,2014-05-28T22:00:00Z,27.7650,-82.6490,54.85,1111122 
COMPS,ioos:station:USF.COMPS:CAM:1,2014-05-28T22:06:00Z,27.7650,-82.6490,54.47,1111122 
COMPS,ioos:station:USF.COMPS:CAM:1,2014-05-28T22:12:00Z,27.7650,-82.6490,54.44,1111122 
COMPS,ioos:station:USF.COMPS:CAM:1,2014-05-28T22:18:00Z,27.7650,-82.6490,53.55,1111122 
COMPS,ioos:station:USF.COMPS:CAM:1,2014-05-28T22:24:00Z,27.7650,-82.6490,54.04,1111122 
COMPS,ioos:station:USF.COMPS:CAM:1,2014-05-28T22:30:00Z,27.7650,-82.6490,54.69,1111122 
COMPS,ioos:station:USF.COMPS:CAM:1,2014-05-28T22:36:00Z,27.7650,-82.6490,57.94,1111122 
COMPS,ioos:station:USF.COMPS:CAM:1,2014-05-28T22:42:00Z,27.7650,-82.6490,59.33,1111122 
COMPS,ioos:station:USF.COMPS:CAM:1,2014-05-28T22:48:00Z,27.7650,-82.6490,60.68,1111122 
COMPS,ioos:station:USF.COMPS:CAM:1,2014-05-28T22:54:00Z,27.7650,-82.6490,61.12,1111122 
COMPS,ioos:station:USF.COMPS:CAM:1,2014-05-28T23:00:00Z,27.7650,-82.6490,60.82,1111122 
COMPS,ioos:station:USF.COMPS:CAM:1,2014-05-28T23:06:00Z,27.7650,-82.6490,61.3,1111122 
COMPS,ioos:station:USF.COMPS:CAM:1,2014-05-28T23:12:00Z,27.7650,-82.6490,62.69,1111122 
COMPS,ioos:station:USF.COMPS:CAM:1,2014-05-28T23:18:00Z,27.7650,-82.6490,63.44,1111122 
COMPS,ioos:station:USF.COMPS:CAM:1,2014-05-28T23:24:00Z,27.7650,-82.6490,64.06,1111122 
COMPS,ioos:station:USF.COMPS:CAM:1,2014-05-28T23:30:00Z,27.7650,-82.6490,65.55,1111122 
COMPS,ioos:station:USF.COMPS:CAM:1,2014-05-28T23:36:00Z,27.7650,-82.6490,65.55,1111122 
COMPS,ioos:station:USF.COMPS:CAM:1,2014-05-28T23:42:00Z,27.7650,-82.6490,66.03,1111122 
COMPS,ioos:station:USF.COMPS:CAM:1,2014-05-28T23:48:00Z,27.7650,-82.6490,66.07,1111122 
COMPS,ioos:station:USF.COMPS:CAM:1,2014-05-28T23:54:00Z,27.7650,-82.6490,64.93,1111122 
COMPS,ioos:station:USF.COMPS:CAM:1,2014-05-29T00:00:00Z,27.7650,-82.6490,64.64,1111122 
COMPS,ioos:station:USF.COMPS:CAM:1,2014-05-29T00:06:00Z,27.7650,-82.6490,65.94,1111122 
COMPS,ioos:station:USF.COMPS:CAM:1,2014-05-29T00:12:00Z,27.7650,-82.6490,67.66,1111122 
COMPS,ioos:station:USF.COMPS:CAM:1,2014-05-29T00:18:00Z,27.7650,-82.6490,65.52,1111122 
COMPS,ioos:station:USF.COMPS:CAM:1,2014-05-29T00:24:00Z,27.7650,-82.6490,63.44,1111122 
COMPS,ioos:station:USF.COMPS:CAM:1,2014-05-29T00:30:00Z,27.7650,-82.6490,63.44,1111122 
COMPS,ioos:station:USF.COMPS:CAM:1,2014-05-29T00:36:00Z,27.7650,-82.6490,65.0,1111122 
COMPS,ioos:station:USF.COMPS:CAM:1,2014-05-29T00:42:00Z,27.7650,-82.6490,63.39,1111122 
COMPS,ioos:station:USF.COMPS:CAM:1,2014-05-29T00:48:00Z,27.7650,-82.6490,61.76,1111122 
COMPS,ioos:station:USF.COMPS:CAM:1,2014-05-29T00:54:00Z,27.7650,-82.6490,63.09,1111122 
COMPS,ioos:station:USF.COMPS:CAM:1,2014-05-29T01:00:00Z,27.7650,-82.6490,64.12,1111122 
COMPS,ioos:station:USF.COMPS:CAM:1,2014-05-29T01:06:00Z,27.7650,-82.6490,63.85,1111122 
COMPS,ioos:station:USF.COMPS:CAM:1,2014-05-29T01:12:00Z,27.7650,-82.6490,64.47,1111122 
COMPS,ioos:station:USF.COMPS:CAM:1,2014-05-29T01:18:00Z,27.7650,-82.6490,67.59,1111122 
COMPS,ioos:station:USF.COMPS:CAM:1,2014-05-29T01:24:00Z,27.7650,-82.6490,66.85,1111122 
COMPS,ioos:station:USF.COMPS:CAM:1,2014-05-29T01:30:00Z,27.7650,-82.6490,66.97,1111122 
COMPS,ioos:station:USF.COMPS:CAM:1,2014-05-29T01:36:00Z,27.7650,-82.6490,69.47,1111122 
COMPS,ioos:station:USF.COMPS:CAM:1,2014-05-29T01:42:00Z,27.7650,-82.6490,68.98,1111122 
COMPS,ioos:station:USF.COMPS:CAM:1,2014-05-29T01:48:00Z,27.7650,-82.6490,68.76,1111122 
COMPS,ioos:station:USF.COMPS:CAM:1,2014-05-29T01:54:00Z,27.7650,-82.6490,68.41,1111122 
COMPS,ioos:station:USF.COMPS:CAM:1,2014-05-29T02:00:00Z,27.7650,-82.6490,68.17,1111122 
COMPS,ioos:station:USF.COMPS:CAM:1,2014-05-29T02:06:00Z,27.7650,-82.6490,68.88,1111122 
COMPS,ioos:station:USF.COMPS:CAM:1,2014-05-29T02:12:00Z,27.7650,-82.6490,70.37,1111122 
COMPS,ioos:station:USF.COMPS:CAM:1,2014-05-29T02:18:00Z,27.7650,-82.6490,71.49,1111122 
COMPS,ioos:station:USF.COMPS:CAM:1,2014-05-29T02:24:00Z,27.7650,-82.6490,71.32,1111122 
COMPS,ioos:station:USF.COMPS:CAM:1,2014-05-29T02:30:00Z,27.7650,-82.6490,71.82,1111122 
COMPS,ioos:station:USF.COMPS:CAM:1,2014-05-29T02:36:00Z,27.7650,-82.6490,72.09,1111122 
COMPS,ioos:station:USF.COMPS:CAM:1,2014-05-29T02:42:00Z,27.7650,-82.6490,72.18,1111122 
COMPS,ioos:station:USF.COMPS:CAM:1,2014-05-29T02:48:00Z,27.7650,-82.6490,72.67,1111122 
COMPS,ioos:station:USF.COMPS:CAM:1,2014-05-29T02:54:00Z,27.7650,-82.6490,73.35,1111122 
COMPS,ioos:station:USF.COMPS:CAM:1,2014-05-29T03:00:00Z,27.7650,-82.6490,73.53,1111122 
COMPS,ioos:station:USF.COMPS:CAM:1,2014-05-29T03:06:00Z,27.7650,-82.6490,73.13,1111122 
COMPS,ioos:station:USF.COMPS:CAM:1,2014-05-29T03:12:00Z,27.7650,-82.6490,72.06,1111122 
COMPS,ioos:station:USF.COMPS:CAM:1,2014-05-29T03:18:00Z,27.7650,-82.6490,71.75,1111122 
COMPS,ioos:station:USF.COMPS:CAM:1,2014-05-29T03:24:00Z,27.7650,-82.6490,72.15,1111122 
COMPS,ioos:station:USF.COMPS:CAM:1,2014-05-29T03:30:00Z,27.7650,-82.6490,73.94,1111122 
COMPS,ioos:station:USF.COMPS:CAM:1,2014-05-29T03:36:00Z,27.7650,-82.6490,74.92,1111122 
COMPS,ioos:station:USF.COMPS:CAM:1,2014-05-29T03:42:00Z,27.7650,-82.6490,75.6,1111122 
COMPS,ioos:station:USF.COMPS:CAM:1,2014-05-29T03:48:00Z,27.7650,-82.6490,76.34,1111122 
COMPS,ioos:station:USF.COMPS:CAM:1,2014-05-29T03:54:00Z,27.7650,-82.6490,75.0,1111122 
COMPS,ioos:station:USF.COMPS:CAM:1,2014-05-29T05:00:00Z,27.7650,-82.6490,74.27,1111122 
COMPS,ioos:station:USF.COMPS:CAM:1,2014-05-29T05:06:00Z,27.7650,-82.6490,74.46,1111122 
COMPS,ioos:station:USF.COMPS:CAM:1,2014-05-29T05:12:00Z,27.7650,-82.6490,74.33,1111122 
COMPS,ioos:station:USF.COMPS:CAM:1,2014-05-29T05:18:00Z,27.7650,-82.6490,73.95,1111122 
COMPS,ioos:station:USF.COMPS:CAM:1,2014-05-29T05:24:00Z,27.7650,-82.6490,72.91,1111122 
COMPS,ioos:station:USF.COMPS:CAM:1,2014-05-29T05:30:00Z,27.7650,-82.6490,72.62,1111122 
COMPS,ioos:station:USF.COMPS:CAM:1,2014-05-29T05:36:00Z,27.7650,-82.6490,72.74,1111122 
COMPS,ioos:station:USF.COMPS:CAM:1,2014-05-29T05:42:00Z,27.7650,-82.6490,73.23,1111122 
COMPS,ioos:station:USF.COMPS:CAM:1,2014-05-29T05:48:00Z,27.7650,-82.6490,73.37,1111122 
COMPS,ioos:station:USF.COMPS:CAM:1,2014-05-29T05:54:00Z,27.7650,-82.6490,73.79,1111122 
COMPS,ioos:station:USF.COMPS:CAM:1,2014-05-29T06:00:00Z,27.7650,-82.6490,74.76,1111122 
COMPS,ioos:station:USF.COMPS:CAM:1,2014-05-29T06:06:00Z,27.7650,-82.6490,75.22,1111122 
COMPS,ioos:station:USF.COMPS:CAM:1,2014-05-29T06:12:00Z,27.7650,-82.6490,75.21,1111122 
COMPS,ioos:station:USF.COMPS:CAM:1,2014-05-29T06:18:00Z,27.7650,-82.6490,75.29,1111122 
COMPS,ioos:station:USF.COMPS:CAM:1,2014-05-29T06:24:00Z,27.7650,-82.6490,75.31,1111122 
COMPS,ioos:station:USF.COMPS:CAM:1,2014-05-29T06:30:00Z,27.7650,-82.6490,75.84,1111122 
COMPS,ioos:station:USF.COMPS:CAM:1,2014-05-29T06:36:00Z,27.7650,-82.6490,75.66,1111122 
COMPS,ioos:station:USF.COMPS:CAM:1,2014-05-29T06:42:00Z,27.7650,-82.6490,76.05,1111122 
COMPS,ioos:station:USF.COMPS:CAM:1,2014-05-29T06:48:00Z,27.7650,-82.6490,74.59,1111122 
COMPS,ioos:station:USF.COMPS:CAM:1,2014-05-29T06:54:00Z,27.7650,-82.6490,75.0,1111122 
COMPS,ioos:station:USF.COMPS:CAM:1,2014-05-29T07:00:00Z,27.7650,-82.6490,75.71,1111122 
COMPS,ioos:station:USF.COMPS:CAM:1,2014-05-29T07:06:00Z,27.7650,-82.6490,76.48,1111122 
COMPS,ioos:station:USF.COMPS:CAM:1,2014-05-29T07:12:00Z,27.7650,-82.6490,75.98,1111122 
COMPS,ioos:station:USF.COMPS:CAM:1,2014-05-29T07:18:00Z,27.7650,-82.6490,75.95,1111122 
COMPS,ioos:station:USF.COMPS:CAM:1,2014-05-29T07:24:00Z,27.7650,-82.6490,76.27,1111122 
COMPS,ioos:station:USF.COMPS:CAM:1,2014-05-29T07:30:00Z,27.7650,-82.6490,76.82,1111122 
COMPS,ioos:station:USF.COMPS:CAM:1,2014-05-29T07:36:00Z,27.7650,-82.6490,77.48,1111122 
COMPS,ioos:station:USF.COMPS:CAM:1,2014-05-29T07:42:00Z,27.7650,-82.6490,77.48,1111122 
COMPS,ioos:station:USF.COMPS:CAM:1,2014-05-29T07:48:00Z,27.7650,-82.6490,77.97,1111122 
COMPS,ioos:station:USF.COMPS:CAM:1,2014-05-29T07:54:00Z,27.7650,-82.6490,78.51,1111122 
COMPS,ioos:station:USF.COMPS:CAM:1,2014-05-29T08:00:00Z,27.7650,-82.6490,78.8,1111122 
COMPS,ioos:station:USF.COMPS:CAM:1,2014-05-29T08:06:00Z,27.7650,-82.6490,79.08,1111122 
COMPS,ioos:station:USF.COMPS:CAM:1,2014-05-29T08:12:00Z,27.7650,-82.6490,79.09,1111122 
COMPS,ioos:station:USF.COMPS:CAM:1,2014-05-29T08:18:00Z,27.7650,-82.6490,79.03,1111122 
COMPS,ioos:station:USF.COMPS:CAM:1,2014-05-29T08:24:00Z,27.7650,-82.6490,79.18,1111122 
COMPS,ioos:station:USF.COMPS:CAM:1,2014-05-29T08:30:00Z,27.7650,-82.6490,78.82,1111122 
COMPS,ioos:station:USF.COMPS:CAM:1,2014-05-29T08:36:00Z,27.7650,-82.6490,79.2,1111122 
COMPS,ioos:station:USF.COMPS:CAM:1,2014-05-29T08:42:00Z,27.7650,-82.6490,80.17,1111122 
COMPS,ioos:station:USF.COMPS:CAM:1,2014-05-29T08:48:00Z,27.7650,-82.6490,81.06,1111122 
COMPS,ioos:station:USF.COMPS:CAM:1,2014-05-29T08:54:00Z,27.7650,-82.6490,81.74,1111122 
COMPS,ioos:station:USF.COMPS:CAM:1,2014-05-29T09:00:00Z,27.7650,-82.6490,82.38,1111122 
COMPS,ioos:station:USF.COMPS:CAM:1,2014-05-29T09:06:00Z,27.7650,-82.6490,82.88,1111122 
COMPS,ioos:station:USF.COMPS:CAM:1,2014-05-29T09:12:00Z,27.7650,-82.6490,83.16,1111122 
COMPS,ioos:station:USF.COMPS:CAM:1,2014-05-29T09:18:00Z,27.7650,-82.6490,83.27,1111122 
COMPS,ioos:station:USF.COMPS:CAM:1,2014-05-29T09:24:00Z,27.7650,-82.6490,83.65,1111122 
COMPS,ioos:station:USF.COMPS:CAM:1,2014-05-29T09:30:00Z,27.7650,-82.6490,83.61,1111122 
COMPS,ioos:station:USF.COMPS:CAM:1,2014-05-29T09:36:00Z,27.7650,-82.6490,83.72,1111122 
COMPS,ioos:station:USF.COMPS:CAM:1,2014-05-29T09:42:00Z,27.7650,-82.6490,83.94,1111122 
COMPS,ioos:station:USF.COMPS:CAM:1,2014-05-29T09:48:00Z,27.7650,-82.6490,84.25,1111122 
COMPS,ioos:station:USF.COMPS:CAM:1,2014-05-29T09:54:00Z,27.7650,-82.6490,84.58,1111122 
COMPS,ioos:station:USF.COMPS:CAM:1,2014-05-29T10:00:00Z,27.7650,-82.6490,84.9,1111122 
COMPS,ioos:station:USF.COMPS:CAM:1,2014-05-29T10:06:00Z,27.7650,-82.6490,85.06,1111122 
COMPS,ioos:station:USF.COMPS:CAM:1,2014-05-29T10:12:00Z,27.7650,-82.6490,84.91,1111122 
COMPS,ioos:station:USF.COMPS:CAM:1,2014-05-29T10:18:00Z,27.7650,-82.6490,85.23,1111122 
COMPS,ioos:station:USF.COMPS:CAM:1,2014-05-29T10:24:00Z,27.7650,-82.6490,85.38,1111122 
COMPS,ioos:station:USF.COMPS:CAM:1,2014-05-29T10:30:00Z,27.7650,-82.6490,85.51,1111122 
COMPS,ioos:station:USF.COMPS:CAM:1,2014-05-29T10:36:00Z,27.7650,-82.6490,85.7,1111122 
COMPS,ioos:station:USF.COMPS:CAM:1,2014-05-29T10:42:00Z,27.7650,-82.6490,86.11,1111122 
COMPS,ioos:station:USF.COMPS:CAM:1,2014-05-29T10:48:00Z,27.7650,-82.6490,86.18,1111122 
COMPS,ioos:station:USF.COMPS:CAM:1,2014-05-29T10:54:00Z,27.7650,-82.6490,86.36,1111122 
COMPS,ioos:station:USF.COMPS:CAM:1,2014-05-29T11:00:00Z,27.7650,-82.6490,86.44,1111122 
COMPS,ioos:station:USF.COMPS:CAM:1,2014-05-29T11:06:00Z,27.7650,-82.6490,86.2,1111122 
COMPS,ioos:station:USF.COMPS:CAM:1,2014-05-29T11:12:00Z,27.7650,-82.6490,85.61,1111122 
COMPS,ioos:station:USF.COMPS:CAM:1,2014-05-29T11:18:00Z,27.7650,-82.6490,85.17,1111122 
COMPS,ioos:station:USF.COMPS:CAM:1,2014-05-29T11:24:00Z,27.7650,-82.6490,84.22,1111122 
COMPS,ioos:station:USF.COMPS:CAM:1,2014-05-29T11:30:00Z,27.7650,-82.6490,84.21,1111122 
COMPS,ioos:station:USF.COMPS:CAM:1,2014-05-29T11:36:00Z,27.7650,-82.6490,84.04,1111122 
COMPS,ioos:station:USF.COMPS:CAM:1,2014-05-29T11:42:00Z,27.7650,-82.6490,83.62,1111122 
COMPS,ioos:station:USF.COMPS:CAM:1,2014-05-29T11:48:00Z,27.7650,-82.6490,83.74,1111122 
COMPS,ioos:station:USF.COMPS:CAM:1,2014-05-29T11:54:00Z,27.7650,-82.6490,83.15,1111122 
COMPS,ioos:station:USF.COMPS:CAM:1,2014-05-29T12:00:00Z,27.7650,-82.6490,82.72,1111122 
COMPS,ioos:station:USF.COMPS:CAM:1,2014-05-29T12:06:00Z,27.7650,-82.6490,82.81,1111122 
COMPS,ioos:station:USF.COMPS:CAM:1,2014-05-29T12:12:00Z,27.7650,-82.6490,83.35,1111122 
COMPS,ioos:station:USF.COMPS:CAM:1,2014-05-29T12:18:00Z,27.7650,-82.6490,82.53,1111122 
COMPS,ioos:station:USF.COMPS:CAM:1,2014-05-29T12:24:00Z,27.7650,-82.6490,83.08,1111122 
COMPS,ioos:station:USF.COMPS:CAM:1,2014-05-29T12:30:00Z,27.7650,-82.6490,82.05,1111122 
COMPS,ioos:station:USF.COMPS:CAM:1,2014-05-29T12:36:00Z,27.7650,-82.6490,81.28,1111122 
COMPS,ioos:station:USF.COMPS:CAM:1,2014-05-29T12:42:00Z,27.7650,-82.6490,81.44,1111122 
COMPS,ioos:station:USF.COMPS:CAM:1,2014-05-29T12:48:00Z,27.7650,-82.6490,81.67,1111122 
COMPS,ioos:station:USF.COMPS:CAM:1,2014-05-29T12:54:00Z,27.7650,-82.6490,81.38,1111122 
COMPS,ioos:station:USF.COMPS:CAM:1,2014-05-29T13:00:00Z,27.7650,-82.6490,80.03,1111122 
COMPS,ioos:station:USF.COMPS:CAM:1,2014-05-29T13:06:00Z,27.7650,-82.6490,79.18,1111122 
COMPS,ioos:station:USF.COMPS:CAM:1,2014-05-29T13:12:00Z,27.7650,-82.6490,78.91,1111122 
COMPS,ioos:station:USF.COMPS:CAM:1,2014-05-29T13:18:00Z,27.7650,-82.6490,77.75,1111122 
COMPS,ioos:station:USF.COMPS:CAM:1,2014-05-29T13:24:00Z,27.7650,-82.6490,77.56,1111122 
COMPS,ioos:station:USF.COMPS:CAM:1,2014-05-29T13:30:00Z,27.7650,-82.6490,76.71,1111122 
COMPS,ioos:station:USF.COMPS:CAM:1,2014-05-29T13:36:00Z,27.7650,-82.6490,76.98,1111122 
COMPS,ioos:station:USF.COMPS:CAM:1,2014-05-29T13:42:00Z,27.7650,-82.6490,75.48,1111122 
COMPS,ioos:station:USF.COMPS:CAM:1,2014-05-29T13:48:00Z,27.7650,-82.6490,74.49,1111122 
COMPS,ioos:station:USF.COMPS:CAM:1,2014-05-29T13:54:00Z,27.7650,-82.6490,73.45,1111122 
COMPS,ioos:station:USF.COMPS:CAM:1,2014-05-29T14:00:00Z,27.7650,-82.6490,72.49,1111122 
COMPS,ioos:station:USF.COMPS:CAM:1,2014-05-29T14:06:00Z,27.7650,-82.6490,73.07,1111122 
COMPS,ioos:station:USF.COMPS:CAM:1,2014-05-29T14:12:00Z,27.7650,-82.6490,73.67,1111122 
COMPS,ioos:station:USF.COMPS:CAM:1,2014-05-29T14:18:00Z,27.7650,-82.6490,73.3,1111122 
COMPS,ioos:station:USF.COMPS:CAM:1,2014-05-29T14:24:00Z,27.7650,-82.6490,73.59,1111122 
COMPS,ioos:station:USF.COMPS:CAM:1,2014-05-29T14:30:00Z,27.7650,-82.6490,73.48,1111122 
COMPS,ioos:station:USF.COMPS:CAM:1,2014-05-29T14:36:00Z,27.7650,-82.6490,72.28,1111122 
COMPS,ioos:station:USF.COMPS:CAM:1,2014-05-29T14:42:00Z,27.7650,-82.6490,71.74,1111122 
COMPS,ioos:station:USF.COMPS:CAM:1,2014-05-29T14:48:00Z,27.7650,-82.6490,71.35,1111122 
COMPS,ioos:station:USF.COMPS:CAM:1,2014-05-29T14:54:00Z,27.7650,-82.6490,70.5,1111122 
COMPS,ioos:station:USF.COMPS:CAM:1,2014-05-29T15:00:00Z,27.7650,-82.6490,69.92,1111122 
COMPS,ioos:station:USF.COMPS:CAM:1,2014-05-29T15:06:00Z,27.7650,-82.6490,69.67,1111122 
COMPS,ioos:station:USF.COMPS:CAM:1,2014-05-29T15:12:00Z,27.7650,-82.6490,68.68,1111122 
COMPS,ioos:station:USF.COMPS:CAM:1,2014-05-29T15:18:00Z,27.7650,-82.6490,67.14,1111122 
COMPS,ioos:station:USF.COMPS:CAM:1,2014-05-29T15:24:00Z,27.7650,-82.6490,66.59,1111122 
COMPS,ioos:station:USF.COMPS:CAM:1,2014-05-29T15:30:00Z,27.7650,-82.6490,66.13,1111122 
COMPS,ioos:station:USF.COMPS:CAM:1,2014-05-29T15:36:00Z,27.7650,-82.6490,65.93,1111122 
COMPS,ioos:station:USF.COMPS:CAM:1,2014-05-29T15:42:00Z,27.7650,-82.6490,65.75,1111122 
COMPS,ioos:station:USF.COMPS:CAM:1,2014-05-29T15:48:00Z,27.7650,-82.6490,65.02,1111122 
COMPS,ioos:station:USF.COMPS:CAM:1,2014-05-29T15:54:00Z,27.7650,-82.6490,63.44,1111122 
COMPS,ioos:station:USF.COMPS:CAM:1,2014-05-29T16:00:00Z,27.7650,-82.6490,62.9,1111122 
COMPS,ioos:station:USF.COMPS:CAM:1,2014-05-29T16:06:00Z,27.7650,-82.6490,62.32,1111122 
COMPS,ioos:station:USF.COMPS:CAM:1,2014-05-29T16:12:00Z,27.7650,-82.6490,61.58,1111122 
COMPS,ioos:station:USF.COMPS:CAM:1,2014-05-29T16:18:00Z,27.7650,-82.6490,61.64,1111122 
COMPS,ioos:station:USF.COMPS:CAM:1,2014-05-29T16:24:00Z,27.7650,-82.6490,61.91,1111122 
COMPS,ioos:station:USF.COMPS:CAM:1,2014-05-29T16:30:00Z,27.7650,-82.6490,61.36,1111122 
COMPS,ioos:station:USF.COMPS:CAM:1,2014-05-29T16:36:00Z,27.7650,-82.6490,61.14,1111122 
COMPS,ioos:station:USF.COMPS:CAM:1,2014-05-29T16:42:00Z,27.7650,-82.6490,59.92,1111122 
COMPS,ioos:station:USF.COMPS:CAM:1,2014-05-29T16:48:00Z,27.7650,-82.6490,59.95,1111122 
COMPS,ioos:station:USF.COMPS:CAM:1,2014-05-29T16:54:00Z,27.7650,-82.6490,58.76,1111122 
COMPS,ioos:station:USF.COMPS:CAM:1,2014-05-29T17:00:00Z,27.7650,-82.6490,57.26,1111122 
COMPS,ioos:station:USF.COMPS:CAM:1,2014-05-29T17:06:00Z,27.7650,-82.6490,57.91,1111122 
COMPS,ioos:station:USF.COMPS:CAM:1,2014-05-29T17:12:00Z,27.7650,-82.6490,58.0,1111122 
COMPS,ioos:station:USF.COMPS:CAM:1,2014-05-29T17:18:00Z,27.7650,-82.6490,57.2,1111122 
COMPS,ioos:station:USF.COMPS:CAM:1,2014-05-29T17:24:00Z,27.7650,-82.6490,56.96,1111122 
COMPS,ioos:station:USF.COMPS:CAM:1,2014-05-29T17:30:00Z,27.7650,-82.6490,56.06,1111122 
COMPS,ioos:station:USF.COMPS:CAM:1,2014-05-29T17:36:00Z,27.7650,-82.6490,55.81,1111122 
COMPS,ioos:station:USF.COMPS:CAM:1,2014-05-29T17:42:00Z,27.7650,-82.6490,55.44,1111122 
COMPS,ioos:station:USF.COMPS:CAM:1,2014-05-29T17:48:00Z,27.7650,-82.6490,55.16,1111122 
COMPS,ioos:station:USF.COMPS:CAM:1,2014-05-29T17:54:00Z,27.7650,-82.6490,54.44,1111122 
COMPS,ioos:station:USF.COMPS:CAM:1,2014-05-29T18:00:00Z,27.7650,-82.6490,54.35,1111122 
COMPS,ioos:station:USF.COMPS:CAM:1,2014-05-29T18:06:00Z,27.7650,-82.6490,53.49,1111122 
COMPS,ioos:station:USF.COMPS:CAM:1,2014-05-29T18:12:00Z,27.7650,-82.6490,52.21,1111122 
COMPS,ioos:station:USF.COMPS:CAM:1,2014-05-29T18:18:00Z,27.7650,-82.6490,51.65,1111122 
COMPS,ioos:station:USF.COMPS:CAM:1,2014-05-29T18:24:00Z,27.7650,-82.6490,51.96,1111122 
COMPS,ioos:station:USF.COMPS:CAM:1,2014-05-29T18:30:00Z,27.7650,-82.6490,51.21,1111122 
COMPS,ioos:station:USF.COMPS:CAM:1,2014-05-29T18:36:00Z,27.7650,-82.6490,52.4,1111122 
COMPS,ioos:station:USF.COMPS:CAM:1,2014-05-29T18:42:00Z,27.7650,-82.6490,57.02,1111122 
COMPS,ioos:station:USF.COMPS:CAM:1,2014-05-29T18:48:00Z,27.7650,-82.6490,59.17,1111122 
COMPS,ioos:station:USF.COMPS:CAM:1,2014-05-29T18:54:00Z,27.7650,-82.6490,60.17,1111122 
COMPS,ioos:station:USF.COMPS:CAM:1,2014-05-29T19:00:00Z,27.7650,-82.6490,59.39,1111122 
COMPS,ioos:station:USF.COMPS:CAM:1,2014-05-29T19:06:00Z,27.7650,-82.6490,59.41,1111122 